Time,TemperatureF,DewpointF,PressureIn,WindDirection,WindDirectionDegrees,WindSpeedMPH,WindSpeedGustMPH,Humidity,HourlyPrecipIn,Conditions,Clouds,dailyrainin,SoftwareType,DateUTC
2013-03-20 01:11:00,29.3,18.3,29.74,NNE,22,3.7,-999.0,63,-99.99,,,0.00,Acu-Link.com,2013-03-20 05:11:00,
2013-03-20 01:41:00,29.5,18.1,29.74,SE,135,0.0,-999.0,62,-99.99,,,0.00,Acu-Link.com,2013-03-20 05:41:00,
2013-03-20 01:56:00,29.3,17.9,29.74,SE,135,0.0,-999.0,62,-99.99,,,0.00,Acu-Link.com,2013-03-20 05:56:00,
2013-03-20 02:12:00,29.7,18.3,29.74,WSW,247,1.7,-999.0,62,-99.99,,,0.00,Acu-Link.com,2013-03-20 06:12:00,
2013-03-20 02:27:00,29.7,18.7,29.74,SE,135,1.7,-999.0,63,-99.99,,,0.00,Acu-Link.com,2013-03-20 06:27:00,
2013-03-20 02:42:00,29.3,18.3,29.74,SSE,157,3.2,-999.0,63,-99.99,,,0.00,Acu-Link.com,2013-03-20 06:42:00,
2013-03-20 02:57:00,29.7,18.3,29.74,SSE,157,3.7,-999.0,62,-99.99,,,0.00,Acu-Link.com,2013-03-20 06:57:00,
2013-03-20 03:12:00,29.8,18.0,29.74,SSW,202,2.2,-999.0,61,-99.99,,,0.00,Acu-Link.com,2013-03-20 07:12:00,
2013-03-20 03:27:00,30.0,18.2,29.74,West,270,4.7,-999.0,61,-99.99,,,0.00,Acu-Link.com,2013-03-20 07:27:00,
2013-03-20 03:42:00,29.8,18.0,29.73,WNW,292,2.7,-999.0,61,-99.99,,,0.00,Acu-Link.com,2013-03-20 07:42:00,
2013-03-20 03:57:00,29.8,18.0,29.73,ESE,112,0.0,-999.0,61,-99.99,,,0.00,Acu-Link.com,2013-03-20 07:57:00,
2013-03-20 04:13:00,29.8,18.0,29.74,East,90,3.2,-999.0,61,-99.99,,,0.00,Acu-Link.com,2013-03-20 08:13:00,
2013-03-20 04:29:00,29.8,18.0,29.74,NNE,22,2.2,-999.0,61,-99.99,,,0.00,Acu-Link.com,2013-03-20 08:29:00,
2013-03-20 04:45:00,29.7,19.4,29.74,NNE,22,2.2,-999.0,65,-99.99,,,0.00,Acu-Link.com,2013-03-20 08:45:00,
2013-03-20 05:00:00,29.5,19.2,29.74,WNW,292,4.7,-999.0,65,-99.99,,,0.00,Acu-Link.com,2013-03-20 09:00:00,
2013-03-20 05:15:00,29.7,19.0,29.74,NNE,22,2.7,-999.0,64,-99.99,,,0.00,Acu-Link.com,2013-03-20 09:15:00,
2013-03-20 05:30:00,29.7,18.3,29.74,SE,135,2.7,-999.0,62,-99.99,,,0.00,Acu-Link.com,2013-03-20 09:30:00,
2013-03-20 05:45:00,29.7,18.3,29.74,West,270,5.8,-999.0,62,-99.99,,,0.00,Acu-Link.com,2013-03-20 09:45:00,
2013-03-20 06:00:00,29.5,19.2,29.75,WNW,292,2.7,-999.0,65,-99.99,,,0.00,Acu-Link.com,2013-03-20 10:00:00,
2013-03-20 06:15:00,29.3,19.4,29.76,East,90,1.7,-999.0,66,-99.99,,,0.00,Acu-Link.com,2013-03-20 10:15:00,
2013-03-20 07:01:00,28.4,20.2,29.77,NE,45,2.7,-999.0,71,-99.99,,,0.00,Acu-Link.com,2013-03-20 11:01:00,
2013-03-20 07:31:00,28.0,20.2,29.77,NNE,22,0.0,-999.0,72,-99.99,,,0.00,Acu-Link.com,2013-03-20 11:31:00,
2013-03-20 07:46:00,28.0,20.2,29.77,NE,45,4.2,-999.0,72,-99.99,,,0.00,Acu-Link.com,2013-03-20 11:46:00,
2013-03-20 08:02:00,28.0,20.2,29.77,East,90,3.2,-999.0,72,-99.99,,,0.00,Acu-Link.com,2013-03-20 12:02:00,
2013-03-20 08:17:00,28.2,20.4,29.78,East,90,4.7,-999.0,72,-99.99,,,0.00,Acu-Link.com,2013-03-20 12:17:00,
2013-03-20 08:32:00,28.0,20.5,29.77,West,270,3.2,-999.0,73,-99.99,,,0.00,Acu-Link.com,2013-03-20 12:32:00,
2013-03-20 08:47:00,28.6,20.7,29.77,WNW,292,4.2,-999.0,72,-99.99,,,0.00,Acu-Link.com,2013-03-20 12:47:00,
2013-03-20 09:32:00,29.8,19.5,29.77,West,270,7.8,-999.0,65,-99.99,,,0.00,Acu-Link.com,2013-03-20 13:32:00,
2013-03-20 09:47:00,30.9,18.7,29.76,WSW,247,3.2,-999.0,60,-99.99,,,0.00,Acu-Link.com,2013-03-20 13:47:00,
2013-03-20 10:02:00,31.5,17.6,29.76,West,270,7.8,-999.0,56,-99.99,,,0.00,Acu-Link.com,2013-03-20 14:02:00,
2013-03-20 10:18:00,32.5,17.3,29.75,ENE,67,2.7,-999.0,53,-99.99,,,0.00,Acu-Link.com,2013-03-20 14:18:00,
2013-03-20 10:48:00,34.2,17.5,29.74,West,270,4.2,-999.0,50,-99.99,,,0.00,Acu-Link.com,2013-03-20 14:48:00,
2013-03-20 11:03:00,35.6,19.3,29.74,East,90,7.8,-999.0,51,-99.99,,,0.00,Acu-Link.com,2013-03-20 15:03:00,
2013-03-20 11:18:00,37.4,18.5,29.73,SSE,157,4.2,-999.0,46,-99.99,,,0.00,Acu-Link.com,2013-03-20 15:18:00,
2013-03-20 11:33:00,38.5,19.5,29.72,SE,135,1.1,-999.0,46,-99.99,,,0.00,Acu-Link.com,2013-03-20 15:33:00,
2013-03-20 11:48:00,36.3,17.0,29.71,ENE,67,3.7,-999.0,45,-99.99,,,0.00,Acu-Link.com,2013-03-20 15:48:00,
2013-03-20 12:03:00,37.8,16.8,29.70,SSE,157,1.7,-999.0,42,-99.99,,,0.00,Acu-Link.com,2013-03-20 16:03:00,
2013-03-20 12:18:00,38.5,17.4,29.70,West,270,9.9,-999.0,42,-99.99,,,0.00,Acu-Link.com,2013-03-20 16:18:00,
2013-03-20 12:34:00,40.6,18.8,29.68,SSE,157,5.8,-999.0,41,-99.99,,,0.00,Acu-Link.com,2013-03-20 16:34:00,
2013-03-20 12:49:00,39.6,16.1,29.68,SE,135,7.8,-999.0,38,-99.99,,,0.00,Acu-Link.com,2013-03-20 16:49:00,
2013-03-20 13:04:00,39.0,15.0,29.68,South,180,3.2,-999.0,37,-99.99,,,0.00,Acu-Link.com,2013-03-20 17:04:00,
2013-03-20 13:19:00,40.1,16.6,29.67,WSW,247,6.3,-999.0,38,-99.99,,,0.00,Acu-Link.com,2013-03-20 17:19:00,
2013-03-20 13:34:00,39.9,17.0,29.67,NNE,22,3.2,-999.0,39,-99.99,,,0.00,Acu-Link.com,2013-03-20 17:34:00,
2013-03-20 13:49:00,39.0,16.2,29.66,East,90,2.7,-999.0,39,-99.99,,,0.00,Acu-Link.com,2013-03-20 17:49:00,
2013-03-20 14:04:00,40.1,17.2,29.66,WSW,247,10.9,-999.0,39,-99.99,,,0.00,Acu-Link.com,2013-03-20 18:04:00,
2013-03-20 14:19:00,39.6,16.7,29.65,SSE,157,7.8,-999.0,39,-99.99,,,0.00,Acu-Link.com,2013-03-20 18:19:00,
2013-03-20 14:34:00,39.4,15.9,29.65,WSW,247,6.3,-999.0,38,-99.99,,,0.00,Acu-Link.com,2013-03-20 18:34:00,
2013-03-20 14:50:00,39.2,15.8,29.64,South,180,5.8,-999.0,38,-99.99,,,0.00,Acu-Link.com,2013-03-20 18:50:00,
2013-03-20 15:05:00,39.4,15.3,29.66,West,270,9.4,-999.0,37,-99.99,,,0.00,Acu-Link.com,2013-03-20 19:05:00,
2013-03-20 15:20:00,39.7,16.8,29.64,West,270,9.9,-999.0,39,-99.99,,,0.00,Acu-Link.com,2013-03-20 19:20:00,
2013-03-20 15:35:00,38.8,16.6,29.65,SSE,157,7.3,-999.0,40,-99.99,,,0.00,Acu-Link.com,2013-03-20 19:35:00,
2013-03-20 15:50:00,39.2,18.1,29.65,SSE,157,2.2,-999.0,42,-99.99,,,0.00,Acu-Link.com,2013-03-20 19:50:00,
2013-03-20 16:05:00,40.1,18.3,29.64,NE,45,5.3,-999.0,41,-99.99,,,0.00,Acu-Link.com,2013-03-20 20:05:00,
2013-03-20 16:20:00,37.4,20.0,29.66,East,90,8.3,-999.0,49,-99.99,,,0.00,Acu-Link.com,2013-03-20 20:20:00,
2013-03-20 16:35:00,35.2,23.1,29.67,WNW,292,8.3,-999.0,61,-99.99,,,0.00,Acu-Link.com,2013-03-20 20:35:00,
2013-03-20 16:50:00,37.4,25.2,29.66,ENE,67,2.2,-999.0,61,-99.99,,,0.00,Acu-Link.com,2013-03-20 20:50:00,
2013-03-20 17:06:00,38.3,22.2,29.66,West,270,9.4,-999.0,52,-99.99,,,0.00,Acu-Link.com,2013-03-20 21:06:00,
2013-03-20 17:36:00,37.4,18.0,29.66,SSE,157,3.2,-999.0,45,-99.99,,,0.00,Acu-Link.com,2013-03-20 21:36:00,
2013-03-20 18:06:00,37.8,18.9,29.65,East,90,3.2,-999.0,46,-99.99,,,0.00,Acu-Link.com,2013-03-20 22:06:00,
2013-03-20 18:36:00,34.9,20.0,29.66,East,90,2.7,-999.0,54,-99.99,,,0.00,Acu-Link.com,2013-03-20 22:36:00,
2013-03-20 18:51:00,34.7,18.9,29.66,WSW,247,3.2,-999.0,52,-99.99,,,0.00,Acu-Link.com,2013-03-20 22:51:00,
2013-03-20 19:06:00,34.2,18.9,29.67,SE,135,2.2,-999.0,53,-99.99,,,0.00,Acu-Link.com,2013-03-20 23:06:00,
2013-03-20 19:22:00,34.0,19.1,29.66,NNE,22,5.8,-999.0,54,-99.99,,,0.00,Acu-Link.com,2013-03-20 23:22:00,
2013-03-20 19:37:00,33.3,18.9,29.66,SSE,157,1.7,-999.0,55,-99.99,,,0.00,Acu-Link.com,2013-03-20 23:37:00,
2013-03-20 19:52:00,32.5,18.2,29.66,ESE,112,2.7,-999.0,55,-99.99,,,0.00,Acu-Link.com,2013-03-20 23:52:00,
2013-03-20 20:07:00,32.7,17.5,29.67,WNW,292,3.2,-999.0,53,-99.99,,,0.00,Acu-Link.com,2013-03-21 00:07:00,
2013-03-20 20:22:00,32.9,17.7,29.68,ESE,112,1.1,-999.0,53,-99.99,,,0.00,Acu-Link.com,2013-03-21 00:22:00,
2013-03-20 20:37:00,31.8,17.1,29.68,ENE,67,2.2,-999.0,54,-99.99,,,0.00,Acu-Link.com,2013-03-21 00:37:00,
2013-03-20 20:52:00,31.3,16.6,29.68,WNW,292,2.7,-999.0,54,-99.99,,,0.00,Acu-Link.com,2013-03-21 00:52:00,
2013-03-20 21:07:00,30.9,18.3,29.69,ESE,112,0.0,-999.0,59,-99.99,,,0.00,Acu-Link.com,2013-03-21 01:07:00,
2013-03-20 21:22:00,30.7,18.1,29.69,West,270,1.7,-999.0,59,-99.99,,,0.00,Acu-Link.com,2013-03-21 01:22:00,
2013-03-20 21:38:00,31.5,16.8,29.69,NE,45,7.3,-999.0,54,-99.99,,,0.00,Acu-Link.com,2013-03-21 01:38:00,
2013-03-20 21:53:00,31.8,15.3,29.70,NE,45,5.3,-999.0,50,-99.99,,,0.00,Acu-Link.com,2013-03-21 01:53:00,
2013-03-20 22:08:00,31.5,15.0,29.70,West,270,4.2,-999.0,50,-99.99,,,0.00,Acu-Link.com,2013-03-21 02:08:00,
2013-03-20 22:23:00,30.9,15.4,29.71,WNW,292,5.8,-999.0,52,-99.99,,,0.00,Acu-Link.com,2013-03-21 02:23:00,
2013-03-20 22:38:00,30.4,15.8,29.71,NE,45,3.2,-999.0,54,-99.99,,,0.00,Acu-Link.com,2013-03-21 02:38:00,
2013-03-20 22:53:00,30.6,15.5,29.71,West,270,4.2,-999.0,53,-99.99,,,0.00,Acu-Link.com,2013-03-21 02:53:00,
2013-03-20 23:08:00,30.6,16.0,29.72,ENE,67,2.7,-999.0,54,-99.99,,,0.00,Acu-Link.com,2013-03-21 03:08:00,
2013-03-20 23:23:00,29.8,18.0,29.71,NE,45,3.7,-999.0,61,-99.99,,,0.00,Acu-Link.com,2013-03-21 03:23:00,
2013-03-20 23:38:00,28.8,18.2,29.72,East,90,4.2,-999.0,64,-99.99,,,0.00,Acu-Link.com,2013-03-21 03:38:00,
2013-03-20 23:54:00,28.6,18.4,29.72,WNW,292,2.7,-999.0,65,-99.99,,,0.00,Acu-Link.com,2013-03-21 03:54:00,